Weather History for Bartlesville, OK

Change the Weather History Date:

Wednesday, December 19, 2012

  Actual Average Record
Temperature  
Mean Temperature 46 °F -  
Max Temperature 66 °F 50 °F 73 °F (1978)
Min Temperature 26 °F 26 °F 1 °F (1983)
Degree Days  
Heating Degree Days 19    
Moisture  
Dew Point 44 °F    
Average Humidity 81    
Maximum Humidity 93    
Minimum Humidity 52    
Precipitation  
Precipitation 0.00 in - - ()
Sea Level Pressure  
Sea Level Pressure 29.61 in    
Wind  
Wind Speed 3 mph (South)    
Max Wind Speed 14 mph    
Max Gust Speed 22 mph    
Visibility 10 miles    
Events      
Averages and records for this station are not official NWS values.
T = Trace of Precipitation, MM = Missing Value Source: NWS Daily Summary

Daily Weather History Graph

Daily Weather History Graph

Search for Another Location

Airport:

Trip Planner

Search our weather history database for the weather conditions in past years. The results will help you decide how hot, cold, wet, or windy it might be!

Date:

Astronomy

Dec. 19, 2012 Rise Set
Actual Time 7:32 AM CST 5:10 PM CST
Civil Twilight 7:03 AM CST 5:39 PM CST
Nautical Twilight 6:30 AM CST 6:12 PM CST
Astronomical Twilight 5:59 AM CST 6:43 PM CST
Moon 11:51 AM CST (12/19) No Moon Set
Length of Visible Light 10h 36m
Length of Day
9h 38m
Waxing Crescent, 45% of the Moon is Illuminated
Dec 19
Waxing Crescent
Dec 19
First Quarter
Dec 28
Full
Jan 4
Last Quarter
Jan 11
New

Hourly Weather History & Observations

Time (CST) Temp. Dew Point Humidity Pressure Visibility Wind Dir Wind Speed Gust Speed Precip Events Conditions
12:53 AM 26.1 °F 24.1 °F 92% 29.82 in 10.0 mi Calm Calm - N/A   Clear
1:53 AM 30.9 °F 28.0 °F 89% 29.82 in 10.0 mi Calm Calm - N/A   Clear
2:53 AM 28.9 °F 27.0 °F 92% 29.81 in 10.0 mi Calm Calm - N/A   Clear
3:53 AM 37.0 °F 32.0 °F 82% 29.78 in 10.0 mi Calm Calm - N/A   Clear
4:53 AM 37.0 °F 33.1 °F 86% 29.75 in 10.0 mi Calm Calm - N/A   Clear
5:53 AM 39.0 °F 33.1 °F 79% 29.75 in 10.0 mi Calm Calm - N/A   Clear
6:53 AM 39.0 °F 34.0 °F 82% 29.73 in 10.0 mi Calm Calm - N/A   Clear
7:53 AM 39.9 °F 35.1 °F 83% 29.72 in 10.0 mi Calm Calm - N/A   Clear
8:53 AM 42.1 °F 37.9 °F 85% 29.71 in 10.0 mi Calm Calm - N/A   Clear
9:46 AM 44.6 °F 39.2 °F 81% 29.71 in 10.0 mi Calm Calm - N/A   Mostly Cloudy
9:53 AM 45.0 °F 39.0 °F 80% 29.70 in 10.0 mi Calm Calm - N/A   Mostly Cloudy
10:14 AM 48.2 °F 39.2 °F 71% 29.69 in 10.0 mi ESE 3.5 mph - N/A   Overcast
10:53 AM 50.0 °F 43.0 °F 77% 29.68 in 10.0 mi SSE 8.1 mph - N/A   Overcast
11:18 AM 50.0 °F 44.6 °F 82% 29.66 in 10.0 mi SSE 5.8 mph - N/A   Overcast
11:53 AM 51.1 °F 46.0 °F 83% 29.64 in 10.0 mi SE 4.6 mph - N/A   Overcast
12:01 PM 51.8 °F 46.4 °F 82% 29.63 in 10.0 mi ESE 4.6 mph - N/A   Overcast
12:53 PM 55.0 °F 48.0 °F 77% 29.58 in 10.0 mi Calm Calm - N/A   Overcast
1:53 PM 59.0 °F 52.0 °F 78% 29.57 in 10.0 mi Calm Calm - N/A   Overcast
2:43 PM 60.8 °F 53.6 °F 77% 29.52 in 10.0 mi SSE 11.5 mph 16.1 mph N/A   Mostly Cloudy
2:53 PM 62.1 °F 55.9 °F 80% 29.50 in 10.0 mi SSE 10.4 mph 16.1 mph N/A   Partly Cloudy
3:53 PM 62.1 °F 55.9 °F 80% 29.49 in 10.0 mi South 8.1 mph - N/A   Mostly Cloudy
4:53 PM 61.0 °F 55.9 °F 83% 29.48 in 10.0 mi SSE 6.9 mph - N/A   Clear
5:53 PM 60.1 °F 57.0 °F 90% 29.45 in 10.0 mi SSE 6.9 mph - N/A   Clear
6:53 PM 59.0 °F 57.0 °F 93% 29.44 in 9.0 mi SSE 8.1 mph - N/A   Clear
7:53 PM 63.0 °F 57.9 °F 84% 29.44 in 10.0 mi South 9.2 mph - N/A   Overcast
8:53 PM 66.0 °F 52.0 °F 60% 29.43 in 10.0 mi WSW 13.8 mph 21.9 mph N/A   Overcast
9:53 PM 61.0 °F 43.0 °F 52% 29.43 in 10.0 mi West 10.4 mph 19.6 mph N/A   Overcast
10:53 PM 55.0 °F 46.9 °F 74% 29.44 in 10.0 mi West 6.9 mph - N/A   Overcast
11:25 PM 53.6 °F 48.2 °F 82% 29.48 in 10.0 mi West 6.9 mph 16.1 mph N/A   Overcast
11:53 PM 50.0 °F 46.0 °F 86% 29.49 in 8.0 mi WNW 9.2 mph 18.4 mph N/A   Mostly Cloudy